{"data":{"norad_id":69086,"intl_designator":"2026-104P","name":"QIANFAN-140","alt_names":[],"object_type":"PAYLOAD","status":"ACTIVE","operator":null,"country":"PRC","launch_date":"2026-05-12","launch_site_code":"TAISC","launch_vehicle":null,"mission":null,"orbit_class":"UNKNOWN","rcs_meters":null,"size_class":null,"mass_kg":null,"dimensions":null,"purposes":[],"wikipedia_slug":null,"has_3d_model":false,"image_url":null,"decayed_at":null,"tle_current":{"epoch":"2026-05-25T04:20:52.948032Z","epoch_age_seconds":55555,"freshness":"FRESH","line1":"1 69086U 26104P   26145.18116838  .00000085  00000+0  31966-4 0  9997","line2":"2 69086  88.9866 344.2462 0002941 173.8947 186.2281 14.22142322  1828","mean_motion":14.22142322,"eccentricity":0.0002941,"inclination_deg":88.9866,"raan_deg":344.2462,"arg_perigee_deg":173.8947,"mean_anomaly_deg":186.2281,"bstar":3.1966e-5,"rev_number":182,"period_min":101.25568852876,"perigee_km":816.00030850692,"apogee_km":820.23314494899,"semimajor_km":7196.253726728,"source":"CELESTRAK","updated_at":"2026-05-25T13:38:09.051905Z"}}}